sat.trackr.live / text

‹ back to catalog

STARLINK-35781

NORAD 67110 · 2025-299J

PAYLOAD ACTIVE UNKNOWN

§ Identity

Operator
Country
US
Launch date
2025-12-15
Launch site
AFETR
Launch vehicle
Mass (kg)
RCS (m²)

Purposes: comms

External: N2YO · Heavens-Above · Gunter

§ Orbital elements

Epoch: 2026-09-19T22:57:52.183008Z

Period
94.27 min
Inclination
43.0022°
Eccentricity
0.0000778
Mean motion
15.27586332 rev/d
Perigee alt
482.5 km
Apogee alt
483.6 km
Semi-major
6,861.2 km
B*
4.3839e-4
RAAN
152.1564°
Arg perigee
257.8819°
Mean anomaly
102.1945°
Rev number
4,282

§ Raw data

STARLINK-357811 67110U 25299J   26262.95685397  .00011823  00000+0  43839-3 0  99962 67110  43.0022 152.1564 0000778 257.8819 102.1945 15.27586332 42824

JSON: /api/v1/satellites/67110 · /tle

For live sub-satellite position, see the globe view (requires WebGL).

§ Visibility from observer

Set your observer location to see the next 7 days of passes ≥ 10°. The values pass through the URL so the page stays shareable.

No JS? Fill the form by hand. The geolocation button needs JavaScript.